BEIDOU-2 IGSO-4 (C09)

Last updated on Sat Aug 15 2026 00:03:26 GMT+0000 (Coordinated Universal Time)

1 37763U 11038A 26226.30168623 -.00000096 00000+0 00000+0 0 9990 2 37763 54.6045 165.1562 0160193 231.3438 129.4589 1.00273645 55233
UTC large
Height (km)
Speed (km/s)
/
Latitude / Longitude
Inclination (degrees)
Orbital Period (minutes)
Azimuth
Elevation
Range (km)
Doppler Factor

Next 0 passes for location: London (51.5072 / 0.1276)

No passes found over London.
BEIDOU-2 IGSO-4 (C09)